HI1077 MDJB-MDJB

Flight info

Callsign HI1077
Flight time N/A
Altitude 4000
Route MDSI DCT EMULU DCT KERSO DCT APGET
Aircraft A119/L-SFG/C

Departure

Time 2026-05-04 17:22
Airport La Isabela International Airport (MDJB)

Arrival

Time N/A
Airport La Isabela International Airport (MDJB)
Time Latitude Longitude Altitude Speed Heading
2026-05-04 17:20 18.57898 -69.98248 84 ft 0 kts 96°
2026-05-04 17:21 18.57717 -69.98344 290 ft 56 kts 173°
2026-05-04 17:21 18.56428 -69.98212 648 ft 96 kts 171°
2026-05-04 17:22 18.55782 -69.98293 1016 ft 93 kts 184°
2026-05-04 17:22 18.55167 -69.98560 1283 ft 97 kts 199°
2026-05-04 17:23 18.53465 -69.99928 1984 ft 104 kts 212°
2026-05-04 17:23 18.52845 -70.00396 2139 ft 116 kts 212°
2026-05-04 17:23 18.51503 -70.01396 2027 ft 119 kts 213°
2026-05-04 17:24 18.50837 -70.01910 1995 ft 118 kts 214°
2026-05-04 17:24 18.49404 -70.03052 1993 ft 119 kts 215°
2026-05-04 17:25 18.48852 -70.03504 1996 ft 119 kts 216°
2026-05-04 17:25 18.47545 -70.04592 1866 ft 123 kts 216°
2026-05-04 17:26 18.46270 -70.05690 1672 ft 113 kts 217°
2026-05-04 17:26 18.44464 -70.07281 1805 ft 114 kts 217°
2026-05-04 17:27 18.43244 -70.08356 1800 ft 114 kts 218°
2026-05-04 17:27 18.42025 -70.09434 1797 ft 114 kts 218°
2026-05-04 17:28 18.40870 -70.10460 1797 ft 114 kts 218°
2026-05-04 17:29 18.39108 -70.12147 1823 ft 119 kts 234°
2026-05-04 17:29 18.38276 -70.14619 1788 ft 119 kts 248°
2026-05-04 17:30 18.37543 -70.17109 1798 ft 119 kts 248°
2026-05-04 17:31 18.37052 -70.18775 1798 ft 119 kts 248°
2026-05-04 17:31 18.36333 -70.21211 2023 ft 117 kts 248°
2026-05-04 17:32 18.35831 -70.22862 2015 ft 119 kts 248°
2026-05-04 17:33 18.34835 -70.25216 1996 ft 117 kts 238°
2026-05-04 17:33 18.34449 -70.25971 1997 ft 117 kts 238°
2026-05-04 17:34 18.33292 -70.28227 1998 ft 117 kts 238°
2026-05-04 17:34 18.32904 -70.28984 1998 ft 117 kts 238°
2026-05-04 17:35 18.31749 -70.31240 1998 ft 117 kts 238°
2026-05-04 17:35 18.30976 -70.32750 1998 ft 117 kts 238°
2026-05-04 17:35 18.30591 -70.33504 1998 ft 117 kts 238°
2026-05-04 17:36 18.30204 -70.34261 1998 ft 117 kts 238°
2026-05-04 17:36 18.29817 -70.35017 1998 ft 117 kts 238°
2026-05-04 17:36 18.29431 -70.35773 1998 ft 117 kts 238°
2026-05-04 17:36 18.29046 -70.36527 1998 ft 117 kts 238°
2026-05-04 17:37 18.28675 -70.37292 2001 ft 118 kts 243°
2026-05-04 17:37 18.28500 -70.38139 2003 ft 121 kts 258°
2026-05-04 17:37 18.28429 -70.39021 1992 ft 121 kts 262°
2026-05-04 17:37 18.28414 -70.39909 1992 ft 122 kts 265°
2026-05-04 17:38 18.28415 -70.40800 1995 ft 122 kts 265°
2026-05-04 17:38 18.28418 -70.41684 1997 ft 122 kts 265°
2026-05-04 17:38 18.28422 -70.42580 1998 ft 122 kts 265°
2026-05-04 17:38 18.28426 -70.43473 1998 ft 122 kts 265°
2026-05-04 17:39 18.28434 -70.45254 1998 ft 122 kts 265°
2026-05-04 17:39 18.28437 -70.46145 1998 ft 122 kts 265°
2026-05-04 17:39 18.28441 -70.47036 1998 ft 122 kts 265°
2026-05-04 17:40 18.28444 -70.47914 1998 ft 122 kts 265°
2026-05-04 17:40 18.28447 -70.48806 1998 ft 122 kts 265°
2026-05-04 17:40 18.28451 -70.49698 1998 ft 122 kts 265°
2026-05-04 17:40 18.28454 -70.50589 1998 ft 122 kts 265°
2026-05-04 17:41 18.28457 -70.51480 1998 ft 122 kts 265°
2026-05-04 17:41 18.28461 -70.52371 1998 ft 122 kts 265°
2026-05-04 17:41 18.28464 -70.53263 1998 ft 122 kts 265°
2026-05-04 17:41 18.28467 -70.54155 1998 ft 122 kts 265°
2026-05-04 17:42 18.28471 -70.55047 1998 ft 122 kts 265°
2026-05-04 17:42 18.28474 -70.55941 1998 ft 122 kts 265°
2026-05-04 17:42 18.28478 -70.56831 1998 ft 122 kts 265°
2026-05-04 17:42 18.28481 -70.57722 1998 ft 122 kts 265°
2026-05-04 17:43 18.28485 -70.58606 1998 ft 122 kts 265°
2026-05-04 17:43 18.28489 -70.59508 1998 ft 122 kts 265°
2026-05-04 17:43 18.28492 -70.60388 1998 ft 122 kts 265°
2026-05-04 17:43 18.28496 -70.61283 1998 ft 122 kts 265°
2026-05-04 17:44 18.28500 -70.62175 1998 ft 122 kts 265°
2026-05-04 17:44 18.28504 -70.63067 1998 ft 122 kts 265°
2026-05-04 17:44 18.28508 -70.63959 1998 ft 122 kts 265°
2026-05-04 17:44 18.28512 -70.64853 1998 ft 122 kts 265°
2026-05-04 17:45 18.28516 -70.65744 1998 ft 122 kts 265°
2026-05-04 17:45 18.28521 -70.66637 1998 ft 122 kts 265°
2026-05-04 17:45 18.28475 -70.67520 1998 ft 120 kts 260°
2026-05-04 17:45 18.28380 -70.68397 1998 ft 121 kts 259°
2026-05-04 17:46 18.28280 -70.69276 1998 ft 121 kts 258°
2026-05-04 17:46 18.28104 -70.70124 1984 ft 115 kts 242°
2026-05-04 17:46 18.27711 -70.70836 2075 ft 112 kts 237°
2026-05-04 17:46 18.27343 -70.71552 2283 ft 110 kts 239°
2026-05-04 17:47 18.26978 -70.72245 2524 ft 107 kts 239°
2026-05-04 17:47 18.26610 -70.72917 2772 ft 105 kts 239°
2026-05-04 17:47 18.26237 -70.73584 3041 ft 109 kts 235°
2026-05-04 17:47 18.25884 -70.74317 3282 ft 114 kts 238°
2026-05-04 17:48 18.25538 -70.75064 3523 ft 113 kts 238°
2026-05-04 17:48 18.25201 -70.75802 3767 ft 113 kts 238°
2026-05-04 17:48 18.24864 -70.76546 4015 ft 112 kts 238°
2026-05-04 17:48 18.24532 -70.77288 4263 ft 112 kts 238°
2026-05-04 17:49 18.24204 -70.78029 4512 ft 111 kts 238°
2026-05-04 17:49 18.23880 -70.78766 4760 ft 111 kts 238°
2026-05-04 17:49 18.23560 -70.79501 5008 ft 110 kts 238°
2026-05-04 17:49 18.23244 -70.80234 5256 ft 110 kts 238°
2026-05-04 17:50 18.22928 -70.80972 5508 ft 111 kts 238°
2026-05-04 17:50 18.22613 -70.81710 5755 ft 111 kts 238°
2026-05-04 17:50 18.22294 -70.82455 5969 ft 114 kts 238°
2026-05-04 17:50 18.21958 -70.83221 6039 ft 119 kts 238°
2026-05-04 17:51 18.21606 -70.84021 6029 ft 121 kts 238°
2026-05-04 17:51 18.21250 -70.84829 6008 ft 121 kts 238°
2026-05-04 17:51 18.20897 -70.85634 5997 ft 121 kts 238°
2026-05-04 17:51 18.20567 -70.86455 6004 ft 124 kts 246°
2026-05-04 17:52 18.20514 -70.86693 6016 ft 126 kts 251°
2026-05-04 17:52 18.20384 -70.87622 5972 ft 126 kts 256°
2026-05-04 17:52 18.20245 -70.88508 5979 ft 123 kts 250°
2026-05-04 17:52 18.20056 -70.89392 5992 ft 124 kts 251°
2026-05-04 17:53 18.19893 -70.90282 5997 ft 124 kts 252°
2026-05-04 17:53 18.19731 -70.91172 5999 ft 125 kts 252°
2026-05-04 17:53 18.19568 -70.92077 5998 ft 125 kts 252°
2026-05-04 17:53 18.19406 -70.92974 5998 ft 125 kts 252°
2026-05-04 17:54 18.19240 -70.93868 5998 ft 124 kts 251°
2026-05-04 17:54 18.19033 -70.94734 5998 ft 123 kts 248°
2026-05-04 17:54 18.18794 -70.95598 5998 ft 123 kts 246°
2026-05-04 17:54 18.18537 -70.96454 5997 ft 123 kts 245°
2026-05-04 17:55 18.18278 -70.97309 5997 ft 123 kts 245°
2026-05-04 17:55 18.18018 -70.98164 5997 ft 123 kts 245°
2026-05-04 17:55 18.17843 -70.98742 5998 ft 123 kts 245°
2026-05-04 17:55 18.17582 -70.99600 5998 ft 123 kts 245°
2026-05-04 17:56 18.17322 -71.00456 5998 ft 123 kts 245°
2026-05-04 17:56 18.17063 -71.01312 5998 ft 123 kts 245°
2026-05-04 17:56 18.16803 -71.02170 5998 ft 123 kts 245°
2026-05-04 17:56 18.16546 -71.03016 5998 ft 123 kts 245°
2026-05-04 17:57 18.16286 -71.03873 5998 ft 123 kts 245°
2026-05-04 17:57 18.16026 -71.04731 5998 ft 123 kts 245°
2026-05-04 17:57 18.15771 -71.05573 5998 ft 123 kts 245°
2026-05-04 17:57 18.15507 -71.06446 5998 ft 123 kts 245°
2026-05-04 17:58 18.15250 -71.07293 5998 ft 123 kts 245°
2026-05-04 17:58 18.14992 -71.08147 5998 ft 123 kts 245°
2026-05-04 17:58 18.14733 -71.09004 6004 ft 122 kts 245°
2026-05-04 17:58 18.14486 -71.09831 6163 ft 115 kts 245°
2026-05-04 17:59 18.14253 -71.10622 6396 ft 112 kts 245°
2026-05-04 17:59 18.14021 -71.11402 6645 ft 111 kts 245°
2026-05-04 17:59 18.13548 -71.12970 7023 ft 117 kts 245°
2026-05-04 18:00 18.13269 -71.13782 7034 ft 121 kts 242°
2026-05-04 18:00 18.12965 -71.14617 7013 ft 121 kts 242°
2026-05-04 18:00 18.12662 -71.15448 6999 ft 121 kts 242°
2026-05-04 18:00 18.12361 -71.16273 6995 ft 121 kts 242°
2026-05-04 18:01 18.12064 -71.17087 6995 ft 121 kts 242°
2026-05-04 18:01 18.11762 -71.17913 6997 ft 121 kts 242°
2026-05-04 18:01 18.11461 -71.18739 6998 ft 121 kts 242°
2026-05-04 18:02 18.10863 -71.20378 6998 ft 121 kts 242°
2026-05-04 18:02 18.10558 -71.21215 6998 ft 121 kts 242°
2026-05-04 18:02 18.10256 -71.22042 6998 ft 121 kts 242°
2026-05-04 18:02 18.09955 -71.22867 6998 ft 121 kts 242°
2026-05-04 18:03 18.09655 -71.23692 6998 ft 121 kts 242°
2026-05-04 18:03 18.09354 -71.24518 6998 ft 121 kts 242°
2026-05-04 18:03 18.09057 -71.25331 6998 ft 121 kts 242°
2026-05-04 18:03 18.08756 -71.26158 6998 ft 121 kts 242°
2026-05-04 18:04 18.08454 -71.26987 6998 ft 121 kts 242°
2026-05-04 18:04 18.08156 -71.27808 6998 ft 121 kts 242°
2026-05-04 18:04 18.07452 -71.29383 6996 ft 115 kts 226°
2026-05-04 18:05 18.06934 -71.30033 7001 ft 116 kts 223°
2026-05-04 18:05 18.06403 -71.30672 6999 ft 116 kts 222°
2026-05-04 18:05 18.05871 -71.31305 6998 ft 116 kts 222°
2026-05-04 18:05 18.05337 -71.31940 6997 ft 116 kts 222°
2026-05-04 18:06 18.04268 -71.33212 6998 ft 116 kts 222°
2026-05-04 18:06 18.03743 -71.33839 6998 ft 116 kts 223°
2026-05-04 18:06 18.03272 -71.34548 6999 ft 118 kts 231°
2026-05-04 18:07 18.02849 -71.35273 6998 ft 118 kts 232°
2026-05-04 18:07 18.02424 -71.36013 6997 ft 118 kts 232°
2026-05-04 18:07 18.01997 -71.36758 6997 ft 118 kts 232°
2026-05-04 18:07 18.01572 -71.37502 6997 ft 118 kts 232°
2026-05-04 18:08 18.01149 -71.38242 6998 ft 118 kts 232°
2026-05-04 18:08 18.00722 -71.38987 6998 ft 118 kts 232°
2026-05-04 18:08 18.00297 -71.39730 6998 ft 119 kts 232°
2026-05-04 18:08 17.99873 -71.40473 6998 ft 119 kts 232°
2026-05-04 18:09 17.99023 -71.41960 6994 ft 120 kts 232°
2026-05-04 18:09 17.98107 -71.43538 6262 ft 128 kts 232°
2026-05-04 18:10 17.97648 -71.44338 5884 ft 128 kts 232°
2026-05-04 18:10 17.97194 -71.45134 5516 ft 128 kts 232°
2026-05-04 18:10 17.96737 -71.45939 5143 ft 127 kts 232°
2026-05-04 18:10 17.96282 -71.46736 4774 ft 127 kts 232°
2026-05-04 18:11 17.95823 -71.47535 4403 ft 128 kts 232°
2026-05-04 18:11 17.95359 -71.48333 4032 ft 128 kts 232°
2026-05-04 18:11 17.94889 -71.49136 3659 ft 129 kts 232°
2026-05-04 18:11 17.94417 -71.49934 3289 ft 129 kts 232°
2026-05-04 18:12 17.93940 -71.50735 2917 ft 129 kts 232°
2026-05-04 18:12 17.93457 -71.51482 2567 ft 120 kts 233°
2026-05-04 18:12 17.92967 -71.52193 2322 ft 120 kts 232°
2026-05-04 18:12 17.92482 -71.52913 2096 ft 122 kts 232°
2026-05-04 18:13 17.92001 -71.53646 1870 ft 122 kts 232°
2026-05-04 18:13 17.91535 -71.54375 1741 ft 119 kts 233°
2026-05-04 18:13 17.90636 -71.55806 1708 ft 117 kts 233°
2026-05-04 18:14 17.90188 -71.56523 1707 ft 117 kts 233°
2026-05-04 18:14 17.89739 -71.57240 1706 ft 117 kts 233°
2026-05-04 18:14 17.89375 -71.57842 1418 ft 83 kts 233°
2026-05-04 18:15 17.89101 -71.58384 1121 ft 14 kts 233°
2026-05-04 18:15 17.88726 -71.59143 1243 ft 116 kts 233°
2026-05-04 18:15 17.88309 -71.59893 1151 ft 117 kts 236°
2026-05-04 18:16 17.87926 -71.60630 1173 ft 119 kts 240°
2026-05-04 18:16 17.87522 -71.61402 1095 ft 122 kts 233°
2026-05-04 18:16 17.86935 -71.61988 1040 ft 116 kts 207°
2026-05-04 18:17 17.85685 -71.63089 856 ft 119 kts 221°
2026-05-04 18:17 17.85121 -71.63714 686 ft 107 kts 198°
2026-05-04 18:17 17.83596 -71.63678 343 ft 115 kts 187°
2026-05-04 18:18 17.82803 -71.63843 246 ft 115 kts 195°
2026-05-04 18:18 17.82375 -71.63908 195 ft 75 kts 131°
2026-05-04 18:18 17.82132 -71.63396 132 ft 80 kts 131°
2026-05-04 18:18 17.81898 -71.63193 28 ft 16 kts 214°
2026-05-04 18:19 17.81864 -71.63211 6 ft 0 kts 237°
2026-05-04 18:19 17.81863 -71.63211 6 ft 0 kts 236°
2026-05-04 18:20 17.81864 -71.63211 6 ft 0 kts 236°